CAPE
1202 984 1082 1268 1088 820 619 948 854 1398 926 926 1040 1115 1529 1845 2040 1744 1602 1472 1387 1428 1090 1364 1176 852 836 829 853 862 715 773 1093 728 1092 1314 1193 900 1276 1306 1308 1238 1077 529 441 568 283 472 341 243 269 77 0 0 0 0 0 0 0 0 0 0 0
1563 1191 684 555 469 436 392 475 810 877 968 832 906 868 709 953 1322 1406 1282 1153 1224 1420 941 1327 1332 1016 836 960 775 1312 850 912 964 1633 1336 1113 1028 665 401 595 953 758 1171 904 800 269 602 397 270 277 360 208 2 0 0 0 0 0 0 0 0 0 0
930 654 708 614 496 414 310 589 1076 816 862 1074 924 875 1056 896 842 1275 1660 1603 1674 1782 1263 1056 1166 910 1043 1196 995 1355 1179 1652 1343 1378 1459 1506 1541 1622 516 608 856 694 262 861 530 353 552 346 262 296 323 214 23 0 0 0 0 0 0 0 0 0 0
709 667 269 286 129 358 516 976 1119 1032 1010 1096 1227 1229 1150 814 1002 783 1068 1788 1930 1692 1097 1248 1283 1090 1182 1089 1294 1402 1110 1523 1074 981 1212 1399 1498 1421 1592 1050 497 503 771 670 560 573 508 192 164 196 181 77 16 0 0 0 0 0 0 0 0 0 0
652 430 213 92 207 245 874 1074 1009 1084 1094 1143 1182 1265 1290 959 1105 1001 959 1116 1167 1253 1112 1569 1496 1344 1155 1231 1191 1264 912 1034 1334 1112 1356 1376 1447 1001 1451 1420 893 820 930 963 422 611 890 850 1036 248 109 31 0 0 0 0 0 0 0 0 0 0 0
732 540 247 283 440 667 948 1150 1188 1085 1118 1139 1130 1093 1266 1159 1166 1181 1089 1047 904 1101 990 1463 1690 1240 1334 1256 1251 1286 1274 1246 1416 1054 1387 1825 1606 1476 1557 1332 1114 252 526 624 802 662 484 836 547 270 39 1 5 0 0 0 0 0 0 0 0 0 0
1054 844 280 586 945 829 1074 1278 1221 1093 1112 1120 1055 1015 1128 1175 1072 1091 1025 886 849 871 933 1335 1546 1491 1502 1425 1273 1284 1189 1244 963 1163 750 1507 1574 1469 1628 1438 865 815 1609 897 777 688 745 790 478 123 38 0 0 0 0 0 0 0 0 0 0 0 0
1255 802 616 622 868 1123 1177 1301 1103 732 806 823 684 670 902 1015 981 1011 1015 1099 1019 916 826 992 1345 1683 1472 1281 1434 1453 1085 1088 1108 1464 1009 1170 1165 1188 1106 1100 884 574 866 654 660 567 654 623 294 250 24 0 0 0 0 0 0 0 0 0 0 0 0
1023 949 740 609 987 1175 1126 996 918 765 733 735 812 860 756 841 905 938 1026 897 901 970 918 929 1217 1256 1731 1328 1133 1175 1288 880 963 1273 1145 903 1002 1108 1044 1276 1006 766 794 568 534 528 416 486 399 334 20 0 0 0 0 0 0 0 0 0 0 0 0
967 786 912 638 1423 1396 1243 1040 1077 924 898 922 812 936 951 836 940 902 737 725 785 898 1027 963 877 938 1383 1289 1010 961 1112 1073 1126 1206 986 1022 1113 939 1012 985 1197 1072 1043 816 275 499 402 389 410 219 16 14 0 0 0 0 0 0 0 0 0 0 0
1277 1076 862 981 1370 1417 1003 1148 1060 960 954 949 900 962 943 946 916 715 613 728 870 784 863 883 753 830 1130 1241 1238 1267 1119 1342 1188 991 1126 1208 1223 1657 1107 886 876 913 1114 735 482 515 515 462 445 92 20 8 12 0 0 0 0 0 0 0 0 0 0
1320 1113 752 727 1128 1065 1028 1054 1017 1006 923 899 863 817 861 631 684 609 506 451 521 537 562 582 592 577 643 1004 1275 1204 953 1014 1099 1147 1223 1300 1002 1496 1404 1415 1114 1206 992 746 407 493 572 402 163 104 5 3 1 28 0 0 0 0 0 0 0 0 0
1037 553 601 407 595 725 794 915 938 835 710 511 461 500 389 336 384 369 539 445 435 535 520 587 710 656 659 785 1319 1158 978 1348 1202 828 1318 1258 1223 1146 1064 1032 1139 1111 918 607 699 572 740 657 274 24 2 18 1 0 0 0 0 0 0 0 0 0 0
1190 938 646 303 299 556 641 513 543 722 514 568 528 399 437 433 449 555 585 480 498 568 556 602 663 594 655 881 1535 1260 1361 1256 745 916 888 1173 1300 1224 1276 1268 737 1023 871 678 778 809 312 266 278 3 10 5 0 0 0 0 0 1 0 0 0 0 0
1109 462 674 352 703 577 575 566 721 662 542 639 594 418 477 439 416 464 422 355 359 303 381 402 536 533 554 1167 1142 1143 1371 800 571 442 796 642 480 1143 1329 900 878 990 606 857 442 92 39 108 22 3 1 0 0 0 0 0 0 0 0 0 0 0 0
836 730 364 549 739 672 694 802 757 625 633 500 426 400 422 509 420 298 326 266 276 248 237 217 349 374 475 1239 1204 1531 1356 656 497 260 436 496 318 927 1198 909 854 719 729 727 558 142 29 24 0 1 0 0 0 0 0 0 9 4 0 0 0 0 0
618 960 637 612 772 722 836 811 794 720 495 380 368 337 442 381 262 315 282 178 175 264 227 288 358 402 382 585 1116 684 915 502 414 261 262 229 98 429 1120 919 731 893 875 787 741 225 24 0 0 1 2 0 0 0 0 0 1 0 1 0 0 0 0
905 749 671 697 884 788 785 711 704 423 298 263 326 412 308 313 217 279 375 153 148 200 240 306 349 344 525 542 532 334 462 215 202 220 154 110 24 73 471 744 923 914 1078 906 1042 148 3 0 0 2 0 0 0 0 0 0 0 3 5 0 0 0 0
1213 883 807 868 865 793 675 688 659 640 337 231 468 351 227 300 123 200 160 142 130 107 78 138 153 232 241 286 328 361 165 103 103 66 28 1 4 6 84 199 602 1146 1384 1349 1078 245 36 2 0 2 0 0 0 0 0 0 0 0 0 1 4 0 2
1290 1194 985 788 828 722 691 638 449 402 358 447 447 301 195 198 103 206 238 143 32 2 24 13 36 39 103 100 112 57 55 15 14 18 17 0 6 1 1 7 35 178 984 1114 806 407 97 13 1 0 0 0 0 4 0 0 0 0 0 0 0 2 0
1466 1328 774 766 718 642 416 572 420 639 550 408 291 188 134 129 143 213 296 131 11 2 3 6 12 41 34 27 11 36 20 19 1 3 4 4 9 7 2 14 2 25 101 238 763 701 856 77 9 2 1 130 20 24 0 0 0 0 0 0 1 7 4
1210 1139 621 500 455 336 353 284 749 683 652 442 227 140 111 140 91 153 105 44 5 0 7 0 0 0 0 0 0 0 21 11 2 7 8 2 2 0 1 5 1 184 107 0 104 1068 1302 775 933 234 25 56 17 26 37 20 4 6 23 10 15 12 12
645 948 1011 584 286 395 277 592 678 719 683 350 107 91 48 1 0 2 1 3 1 61 3 0 0 0 0 0 4 0 14 8 2 5 6 3 2 2 5 2 386 0 0 0 0 0 0 0 0 508 820 391 296 152 86 106 22 17 7 6 10 15 9
509 635 801 787 699 531 556 612 652 550 380 165 43 1 0 0 0 0 0 0 84 3 0 0 0 0 0 0 0 328 4 0 0 1 5 7 16 10 4 0 211 0 0 0 179 0 0 0 0 0 15 371 522 1017 1027 177 50 40 20 8 6 14 34
225 336 341 423 448 392 440 548 212 84 108 63 5 0 0 0 0 0 19 182 3 0 0 0 0 0 0 0 0 12 21 1 0 0 0 0 4 6 3 0 8 0 0 936 5 0 1 0 0 0 0 0 0 0 0 24 322 229 181 116 32 48 54
0 0 9 2 13 7 100 80 165 273 375 278 19 0 2 18 40 130 42 0 0 0 0 0 0 0 0 0 0 0 0 1 3 0 0 0 0 0 0 0 1 15 0 25 12 84 15 76 0 0 0 0 0 0 0 0 0 73 114 210 447 148 93
12 2 0 0 0 0 16 4 2 41 143 208 202 129 74 44 18 0 0 0 0 0 0 0 0 0 0 0 0 0 8 0 0 0 0 0 0 18 46 67 32 22 22 50 33 256 10 34 404 145 232 179 12 247 0 0 0 0 28 52 103 264 639
0 0 0 0 0 0 0 1 1 0 6 119 281 69 13 2 0 0 0 0 0 0 0 0 0 0 0 0 0 6 39 2 0 0 0 8 14 21 40 66 78 64 83 52 0 0 23 137 133 233 405 329 153 49 63 191 779 309 264 344 180 126 138
6 5 0 2 0 6 11 3 1 6 15 16 2 1 2 1 0 0 0 0 0 0 0 0 0 0 0 0 0 0 35 11 0 0 7 15 2 1 10 19 36 16 64 40 0 0 0 15 89 147 202 274 254 237 305 292 645 760 798 584 314 292 308
18 10 11 5 4 12 10 4 10 10 12 9 7 4 0 0 0 0 0 0 2 0 0 0 0 0 0 0 0 3 30 17 51 73 181 179 90 48 515 576 716 399 654 0 170 76 0 6 147 61 56 64 140 335 291 334 462 310 291 207 0 0 0
7 4 1 1 0 1 4 3 2 3 2 0 0 0 0 0 0 0 0 1 4 4 3 0 0 0 0 0 0 2 6 17 69 109 233 208 216 244 334 5 28 325 124 85 177 0 0 0 263 445 521 456 325 222 273 445 761 482 264 323 0 0 0
0 0 0 3 2 0 0 0 0 0 0 0 0 0 0 0 0 0 1 2 2 2 1 0 0 0 0 0 0 0 0 0 29 47 53 129 113 41 0 0 0 0 0 0 0 0 0 0 14 177 492 767 828 942 950 882 775 634 513 505 757 521 198
0 0 0 0 2 11 12 8 6 5 7 6 3 1 0 1 4 4 0 9 8 3 3 3 4 0 0 0 0 0 0 0 0 0 0 0 0 3 9 0 0 0 0 0 0 0 0 0 0 0 0 10 136 513 510 630 606 439 438 444 391 532 653
0 0 0 0 3 6 5 5 0 0 1 1 2 1 0 0 1 1 4 5 5 0 1 2 0 2 0 0 0 0 6 0 0 0 0 0 0 0 1 2 0 0 0 0 0 0 0 0 0 0 0 0 0 0 0 0 0 0 60 253 357 450 636
0 0 0 0 0 1 3 1 1 2 4 3 3 1 0 0 0 0 0 1 1 0 1 0 0 3 4 6 3 0 0 0 26 0 0 0 0 0 0 0 0 0 0 0 0 0 0 0 0 0 0 0 0 0 0 0 0 0 0 0 26 346 466
2 1 0 0 0 0 0 0 0 4 3 1 1 0 0 0 0 0 0 0 0 0 0 0 0 0 0 2 5 5 5 5 0 0 0 0 0 0 0 0 0 0 6 4 2 1 1 0 0 3 3 4 5 5 2 0 0 0 0 0 0 1 22
0 1 1 1 0 0 0 0 0 0 2 3 2 2 2 1 0 0 0 0 0 0 0 0 0 0 0 0 1 0 0 0 0 0 0 0 0 0 1 7 1 0 1 0 0 0 0 2 1 1 1 0 0 0 0 0 0 0 0 0 0 0 0
Wind_Speed
20 21 19 18 21 23 22 17 9 15 15 14 13 13 11 13 12 13 10 10 10 10 9 8 9 9 11 10 14 12 10 13 12 10 14 13 16 16 14 11 9 13 10 14 13 13 14 14 14 14 16 nan nan nan nan nan nan nan nan nan nan nan nan
21 22 21 19 20 21 18 8 5 17 16 15 14 13 11 12 12 11 9 9 10 10 9 10 10 10 13 12 14 10 12 13 12 15 11 13 17 11 13 12 8 14 10 13 14 11 12 15 14 16 17 17 nan nan nan nan nan nan nan nan nan nan nan
24 23 21 20 20 16 12 4 14 18 18 17 15 14 12 11 12 12 11 11 10 10 10 10 11 13 12 14 15 14 16 12 11 18 14 17 19 12 11 14 10 13 14 18 14 14 12 10 16 18 17 19 nan nan nan nan nan nan nan nan nan nan nan
23 23 25 26 20 13 7 15 18 20 20 19 18 16 13 12 12 12 12 11 11 11 11 10 13 13 13 14 14 16 16 13 11 18 17 15 14 13 13 11 11 9 14 13 17 13 13 15 21 19 18 nan nan nan nan nan nan nan nan nan nan nan nan
27 26 25 nan 14 6 14 19 19 19 20 20 19 18 15 13 13 12 12 12 11 11 11 11 13 14 14 14 14 14 16 13 18 15 16 14 12 11 10 10 12 11 12 14 21 13 16 14 15 20 19 nan nan nan nan nan nan nan nan nan nan nan nan
29 25 24 22 11 11 18 19 19 18 18 20 20 19 17 15 13 13 12 12 12 12 12 13 14 13 15 13 13 13 12 13 18 16 15 13 13 10 10 10 13 8 12 14 19 16 16 18 16 21 nan nan nan nan nan nan nan nan nan nan nan nan nan
27 22 22 18 12 15 18 18 17 17 17 19 21 20 18 15 14 14 14 13 13 13 13 14 14 14 14 13 13 12 11 12 14 20 14 13 11 10 10 12 14 11 14 16 17 18 19 19 18 21 nan nan nan nan nan nan nan nan nan nan nan nan nan
22 19 18 14 13 16 17 16 14 15 16 18 20 22 20 17 16 15 15 15 14 14 14 15 16 15 15 14 14 13 13 14 14 18 18 15 14 13 13 12 16 11 11 16 15 16 16 16 16 21 nan nan nan nan nan nan nan nan nan nan nan nan nan
18 20 19 13 15 16 16 15 15 16 18 19 21 23 21 19 18 16 15 15 14 15 15 15 16 16 15 15 15 14 14 16 15 17 19 19 18 16 14 12 12 12 12 14 15 16 16 14 15 20 nan nan nan nan nan nan nan nan nan nan nan nan nan
19 23 22 12 18 16 17 15 16 18 21 21 23 23 22 21 19 16 16 17 16 16 15 16 16 14 14 13 14 16 15 16 16 15 18 15 18 18 15 17 11 12 11 12 14 17 15 14 17 19 nan nan nan nan nan nan nan nan nan nan nan nan nan
20 25 24 13 19 18 17 17 17 19 21 22 23 22 21 22 21 19 19 18 15 14 15 16 15 14 14 14 13 15 16 16 16 15 14 16 15 16 14 16 16 12 10 9 12 15 18 16 16 nan nan nan nan nan nan nan nan nan nan nan nan nan nan
25 30 25 11 19 18 17 18 18 19 20 20 18 19 20 23 23 21 18 14 12 12 14 15 15 15 14 14 13 14 15 14 13 13 13 15 13 12 13 13 13 11 9 9 13 14 18 19 17 17 nan nan nan nan nan nan nan nan nan nan nan nan nan
27 25 19 15 18 18 17 19 20 19 19 18 17 18 19 19 17 16 13 11 12 12 13 14 14 14 14 13 13 13 14 13 12 11 12 11 12 12 10 9 8 10 9 12 12 14 15 15 16 nan nan nan nan nan nan nan nan nan nan nan nan nan nan
25 20 17 20 18 19 18 20 20 19 17 16 17 18 18 17 16 16 15 14 14 13 13 13 13 13 13 12 12 11 13 12 11 11 10 10 10 8 6 7 8 11 9 11 13 13 14 14 14 nan nan nan nan nan nan nan nan nan nan nan nan nan nan
24 19 20 19 21 20 20 19 19 18 16 18 19 18 19 19 17 15 15 13 13 14 13 13 12 13 12 12 12 12 12 11 10 11 10 8 9 7 9 7 9 12 10 14 13 nan nan 15 nan nan nan nan nan nan nan nan nan nan nan nan nan nan nan
29 19 18 20 22 21 18 18 17 17 18 20 20 20 21 20 17 16 16 15 15 15 13 13 14 13 13 13 13 14 14 13 12 12 11 10 9 9 10 9 11 13 12 15 13 13 nan nan nan nan nan nan nan nan nan nan nan nan nan nan nan nan nan
20 13 19 20 20 19 18 16 17 17 19 21 22 21 23 19 19 20 18 17 17 17 15 16 15 14 14 14 15 15 15 15 14 14 13 13 nan 11 12 12 11 14 14 16 17 14 nan nan nan nan nan nan nan nan nan nan nan nan nan nan nan nan nan
8 13 20 21 19 20 18 19 18 19 21 22 22 22 21 20 20 21 19 17 18 17 17 16 16 16 18 17 17 17 17 17 16 16 16 14 nan nan 15 14 13 16 15 17 20 15 nan nan nan nan nan nan nan nan nan nan nan nan nan nan nan nan nan
10 19 20 19 21 21 21 22 21 21 21 21 21 19 19 19 19 19 17 16 17 17 nan 17 17 18 20 20 20 20 17 19 19 nan nan nan nan nan nan 21 15 18 17 17 20 16 nan nan nan nan nan nan nan nan nan nan nan nan nan nan nan nan nan
19 21 21 21 21 21 23 24 21 20 17 20 18 17 17 17 15 15 14 14 nan nan nan nan nan nan 21 22 23 nan nan nan nan nan nan nan nan nan nan nan nan 21 19 22 19 18 nan nan nan nan nan nan nan nan nan nan nan nan nan nan nan nan nan
28 26 24 24 23 22 23 21 21 20 20 19 18 17 17 16 15 12 14 12 nan nan nan nan nan nan nan nan nan nan nan nan nan nan nan nan nan nan nan nan nan nan 22 22 23 19 20 nan nan nan nan 23 nan nan nan nan nan nan nan nan nan nan nan
32 29 25 22 23 23 22 20 20 22 21 21 19 19 20 19 nan 16 18 nan nan nan nan nan nan nan nan nan nan nan nan nan nan nan nan nan nan nan nan nan nan 29 34 nan 35 32 31 29 24 23 nan nan nan nan nan nan nan nan nan nan nan nan nan
35 33 31 26 24 25 24 22 22 24 24 24 22 nan nan nan nan nan nan nan nan nan nan nan nan nan nan nan nan nan nan nan nan nan nan nan nan nan nan nan 32 nan nan nan nan nan nan nan nan 33 28 25 24 24 nan 24 nan nan nan nan nan nan nan
35 35 35 32 31 29 27 27 26 26 27 27 nan nan nan nan nan nan nan nan nan nan nan nan nan nan nan nan nan 30 nan nan nan nan nan nan nan nan nan nan 30 nan nan nan 32 nan nan nan nan nan nan 33 33 31 25 25 nan nan nan nan nan nan nan
35 36 36 35 35 35 37 36 32 nan 30 nan nan nan nan nan nan nan nan 34 nan nan nan nan nan nan nan nan nan nan nan nan nan nan nan nan nan nan nan nan nan nan nan 31 nan nan nan nan nan nan nan nan nan nan nan nan 27 25 25 24 nan nan nan
nan nan nan nan nan nan nan nan 37 37 37 34 nan nan nan nan nan 34 nan nan nan nan nan nan nan nan nan nan nan nan nan nan nan nan nan nan nan nan nan nan nan nan nan nan nan nan nan nan nan nan nan nan nan nan nan nan nan nan 30 29 27 26 nan
nan nan nan nan nan nan nan nan nan nan 35 37 39 40 nan nan nan nan nan nan nan nan nan nan nan nan nan nan nan nan nan nan nan nan nan nan nan nan nan nan nan nan nan nan nan 29 nan nan 35 33 32 31 nan 31 nan nan nan nan nan nan 31 31 32
nan nan nan nan nan nan nan nan nan nan nan 36 38 nan nan nan nan nan nan nan nan nan nan nan nan nan nan nan nan nan nan nan nan nan nan nan nan nan nan nan nan nan nan nan nan nan nan 31 30 31 31 31 31 nan nan 32 34 34 36 36 35 33 33
nan nan nan nan nan nan nan nan nan nan nan nan nan nan nan nan nan nan nan nan nan nan nan nan nan nan nan nan nan nan nan nan nan nan nan nan nan nan nan nan nan nan nan nan nan nan nan nan nan 31 31 31 32 32 32 34 37 41 39 39 37 37 37
nan nan nan nan nan nan nan nan nan nan nan nan nan nan nan nan nan nan nan nan nan nan nan nan nan nan nan nan nan nan nan nan nan nan 27 27 nan nan 32 33 32 30 39 nan 38 nan nan nan 35 nan nan nan 32 33 34 37 43 43 44 42 nan nan nan
nan nan nan nan nan nan nan nan nan nan nan nan nan nan nan nan nan nan nan nan nan nan nan nan nan nan nan nan nan nan nan nan nan 28 29 28 27 35 39 nan nan 39 41 nan 41 nan nan nan 36 35 34 34 33 33 36 41 48 50 49 44 nan nan nan
nan nan nan nan nan nan nan nan nan nan nan nan nan nan nan nan nan nan nan nan nan nan nan nan nan nan nan nan nan nan nan nan nan nan nan 33 33 nan nan nan nan nan nan nan nan nan nan nan nan 39 40 38 38 37 41 48 47 50 48 44 44 45 43
nan nan nan nan nan nan nan nan nan nan nan nan nan nan nan nan nan nan nan nan nan nan nan nan nan nan nan nan nan nan nan nan nan nan nan nan nan nan nan nan nan nan nan nan nan nan nan nan nan nan nan nan 41 44 50 46 48 49 49 47 47 47 46
nan nan nan nan nan nan nan nan nan nan nan nan nan nan nan nan nan nan nan nan nan nan nan nan nan nan nan nan nan nan nan nan nan nan nan nan nan nan nan nan nan nan nan nan nan nan nan nan nan nan nan nan nan nan nan nan nan nan nan 49 50 51 51
nan nan nan nan nan nan nan nan nan nan nan nan nan nan nan nan nan nan nan nan nan nan nan nan nan nan nan nan nan nan nan nan nan nan nan nan nan nan nan nan nan nan nan nan nan nan nan nan nan nan nan nan nan nan nan nan nan nan nan nan nan 52 53
nan nan nan nan nan nan nan nan nan nan nan nan nan nan nan nan nan nan nan nan nan nan nan nan nan nan nan nan nan nan nan nan nan nan nan nan nan nan nan nan nan nan nan nan nan nan nan nan nan nan nan nan nan nan nan nan nan nan nan nan nan nan nan
nan nan nan nan nan nan nan nan nan nan nan nan nan nan nan nan nan nan nan nan nan nan nan nan nan nan nan nan nan nan nan nan nan nan nan nan nan nan nan nan nan nan nan nan nan nan nan nan nan nan nan nan nan nan nan nan nan nan nan nan nan nan nan
Wind_Direction
256 257 254 235 224 226 224 201 243 268 270 264 251 247 237 251 254 258 260 260 264 269 267 270 277 285 287 286 293 290 297 293 290 288 281 282 276 276 279 282 287 283 279 270 282 282 291 285 286 285 279 nan nan nan nan nan nan nan nan nan nan nan nan
244 243 234 228 223 232 227 193 277 289 278 265 252 248 260 272 269 267 278 273 271 270 275 270 271 283 286 283 286 288 291 283 286 248 254 275 278 264 283 275 265 282 298 281 285 276 295 288 292 296 291 287 nan nan nan nan nan nan nan nan nan nan nan
240 236 229 228 224 219 232 281 296 293 279 265 252 245 248 260 270 272 270 272 271 268 272 277 279 281 282 280 289 284 263 264 254 267 249 240 253 249 263 270 257 257 292 280 290 298 284 311 296 299 298 302 nan nan nan nan nan nan nan nan nan nan nan
248 240 232 228 218 214 261 289 292 289 279 265 251 244 248 256 259 269 267 267 270 268 274 271 275 281 280 282 281 284 283 279 266 258 255 256 249 258 253 248 263 258 259 283 284 286 289 292 297 298 298 nan nan nan nan nan nan nan nan nan nan nan nan
249 240 236 nan 219 248 284 289 291 285 275 262 250 245 245 251 254 258 266 272 272 272 274 268 274 276 281 280 284 285 288 286 276 272 267 264 263 267 261 263 249 234 256 263 272 290 281 280 283 293 296 nan nan nan nan nan nan nan nan nan nan nan nan
241 236 222 217 222 266 280 290 290 283 273 261 251 246 246 250 251 256 260 260 261 264 270 272 272 276 278 281 282 286 284 290 278 275 271 272 274 271 267 265 258 267 270 276 281 288 289 281 280 294 nan nan nan nan nan nan nan nan nan nan nan nan nan
234 222 220 213 234 264 276 285 285 280 275 263 252 247 247 249 246 252 253 253 253 260 270 274 274 276 276 275 280 282 281 278 280 288 285 283 276 275 266 263 263 253 263 274 284 287 287 291 297 302 nan nan nan nan nan nan nan nan nan nan nan nan nan
241 236 230 227 250 270 275 281 280 279 274 266 256 251 252 243 247 252 253 255 257 263 271 274 274 276 273 270 270 271 272 271 271 271 286 289 285 290 277 277 272 264 278 285 286 285 290 293 299 301 nan nan nan nan nan nan nan nan nan nan nan nan nan
258 251 234 233 265 273 279 278 277 275 269 264 256 252 249 244 248 257 259 261 264 268 275 278 277 275 273 272 271 268 267 265 272 283 281 290 293 289 293 285 279 299 298 296 302 301 302 306 308 300 nan nan nan nan nan nan nan nan nan nan nan nan nan
267 251 236 239 272 274 274 272 272 271 267 261 258 253 246 244 251 262 268 268 267 270 273 276 276 273 272 270 270 273 272 269 271 277 281 288 290 296 299 297 288 283 292 297 303 305 305 304 296 300 nan nan nan nan nan nan nan nan nan nan nan nan nan
260 250 245 254 278 276 274 267 269 272 272 266 263 258 248 247 252 263 266 263 262 269 277 276 278 276 273 272 271 270 269 264 271 273 275 273 271 281 284 292 289 287 268 286 286 292 295 295 296 nan nan nan nan nan nan nan nan nan nan nan nan nan nan
257 247 250 271 283 283 277 264 266 271 273 271 270 263 253 250 250 254 256 260 262 273 276 275 275 274 273 269 271 269 275 278 273 274 274 276 278 275 282 281 285 280 276 289 293 298 297 304 308 307 nan nan nan nan nan nan nan nan nan nan nan nan nan
263 261 267 283 282 281 272 264 262 265 268 266 263 260 258 261 261 262 263 272 277 277 277 274 272 269 269 267 268 271 274 276 278 275 276 281 279 288 298 301 292 286 294 297 299 299 295 302 302 nan nan nan nan nan nan nan nan nan nan nan nan nan nan
262 259 271 275 274 271 261 256 255 256 260 259 261 262 268 274 274 272 278 280 281 278 276 270 264 264 267 266 268 269 270 279 277 272 274 278 276 276 283 291 310 300 313 301 294 302 303 306 300 nan nan nan nan nan nan nan nan nan nan nan nan nan nan
245 245 255 263 256 260 257 251 253 252 252 259 265 266 270 270 271 271 272 275 273 275 272 266 264 264 262 264 266 261 265 270 266 268 261 267 267 258 275 300 308 295 307 299 307 nan nan 303 nan nan nan nan nan nan nan nan nan nan nan nan nan nan nan
229 236 261 261 255 261 259 257 255 252 249 254 262 264 266 266 266 265 260 257 262 261 254 252 254 256 257 259 262 262 261 263 263 266 264 266 272 266 275 286 294 300 300 297 306 307 nan nan nan nan nan nan nan nan nan nan nan nan nan nan nan nan nan
224 232 274 267 268 268 266 260 256 256 257 258 261 260 263 264 261 260 257 255 256 250 242 240 245 247 254 254 254 260 258 261 262 259 260 260 nan 275 274 276 286 292 293 295 296 302 nan nan nan nan nan nan nan nan nan nan nan nan nan nan nan nan nan
225 289 285 277 281 276 265 258 253 257 258 259 259 258 260 261 263 264 260 258 254 244 239 240 244 248 249 249 252 256 254 257 259 261 263 271 nan nan 274 270 273 286 284 291 285 296 nan nan nan nan nan nan nan nan nan nan nan nan nan nan nan nan nan
255 287 280 277 282 272 260 256 256 254 259 259 259 263 267 265 268 270 266 255 245 236 nan 238 246 251 252 254 256 256 260 263 262 nan nan nan nan nan nan 278 275 266 279 275 278 288 nan nan nan nan nan nan nan nan nan nan nan nan nan nan nan nan nan
249 271 275 275 270 264 254 255 258 264 261 261 262 266 271 274 271 267 257 245 nan nan nan nan nan nan 256 258 254 nan nan nan nan nan nan nan nan nan nan nan nan 279 275 277 278 284 nan nan nan nan nan nan nan nan nan nan nan nan nan nan nan nan nan
258 264 274 273 271 262 258 254 268 264 261 261 262 267 270 271 265 253 246 231 nan nan nan nan nan nan nan nan nan nan nan nan nan nan nan nan nan nan nan nan nan nan 272 274 277 278 278 nan nan nan nan 280 nan nan nan nan nan nan nan nan nan nan nan
258 263 272 277 273 267 261 265 261 260 258 258 257 263 265 263 nan 246 241 nan nan nan nan nan nan nan nan nan nan nan nan nan nan nan nan nan nan nan nan nan nan 254 250 nan 249 252 252 251 265 274 nan nan nan nan nan nan nan nan nan nan nan nan nan
255 257 262 266 268 264 261 259 259 259 257 256 256 nan nan nan nan nan nan nan nan nan nan nan nan nan nan nan nan nan nan nan nan nan nan nan nan nan nan nan 257 nan nan nan nan nan nan nan nan 253 255 263 273 279 nan 279 nan nan nan nan nan nan nan
261 260 258 260 262 260 257 255 255 259 256 254 nan nan nan nan nan nan nan nan nan nan nan nan nan nan nan nan nan 239 nan nan nan nan nan nan nan nan nan nan 264 nan nan nan 260 nan nan nan nan nan nan 258 260 263 267 279 nan nan nan nan nan nan nan
262 260 258 258 258 253 246 246 251 nan 251 nan nan nan nan nan nan nan nan 250 nan nan nan nan nan nan nan nan nan nan nan nan nan nan nan nan nan nan nan nan nan nan nan 268 nan nan nan nan nan nan nan nan nan nan nan nan 264 268 273 276 nan nan nan
nan nan nan nan nan nan nan nan 249 248 245 244 nan nan nan nan nan 252 nan nan nan nan nan nan nan nan nan nan nan nan nan nan nan nan nan nan nan nan nan nan nan nan nan nan nan nan nan nan nan nan nan nan nan nan nan nan nan nan 263 261 269 275 nan
nan nan nan nan nan nan nan nan nan nan 249 250 250 248 nan nan nan nan nan nan nan nan nan nan nan nan nan nan nan nan nan nan nan nan nan nan nan nan nan nan nan nan nan nan nan 273 nan nan 277 277 275 274 nan 277 nan nan nan nan nan nan 266 265 266
nan nan nan nan nan nan nan nan nan nan nan 251 252 nan nan nan nan nan nan nan nan nan nan nan nan nan nan nan nan nan nan nan nan nan nan nan nan nan nan nan nan nan nan nan nan nan nan 268 270 270 272 273 274 nan nan 275 275 273 272 272 270 267 266
nan nan nan nan nan nan nan nan nan nan nan nan nan nan nan nan nan nan nan nan nan nan nan nan nan nan nan nan nan nan nan nan nan nan nan nan nan nan nan nan nan nan nan nan nan nan nan nan nan 266 269 272 272 273 273 275 272 270 271 270 271 271 270
nan nan nan nan nan nan nan nan nan nan nan nan nan nan nan nan nan nan nan nan nan nan nan nan nan nan nan nan nan nan nan nan nan nan 258 260 nan nan 260 259 260 267 268 nan 257 nan nan nan 267 nan nan nan 271 271 271 272 281 281 273 265 nan nan nan
nan nan nan nan nan nan nan nan nan nan nan nan nan nan nan nan nan nan nan nan nan nan nan nan nan nan nan nan nan nan nan nan nan 255 262 263 261 264 260 nan nan 263 264 nan 257 nan nan nan 267 268 269 269 269 270 269 267 267 267 270 277 nan nan nan
nan nan nan nan nan nan nan nan nan nan nan nan nan nan nan nan nan nan nan nan nan nan nan nan nan nan nan nan nan nan nan nan nan nan nan 266 268 nan nan nan nan nan nan nan nan nan nan nan nan 265 264 265 268 269 268 266 269 270 267 267 271 272 276
nan nan nan nan nan nan nan nan nan nan nan nan nan nan nan nan nan nan nan nan nan nan nan nan nan nan nan nan nan nan nan nan nan nan nan nan nan nan nan nan nan nan nan nan nan nan nan nan nan nan nan nan 270 269 266 268 270 272 274 278 278 278 279
nan nan nan nan nan nan nan nan nan nan nan nan nan nan nan nan nan nan nan nan nan nan nan nan nan nan nan nan nan nan nan nan nan nan nan nan nan nan nan nan nan nan nan nan nan nan nan nan nan nan nan nan nan nan nan nan nan nan nan 278 278 278 277
nan nan nan nan nan nan nan nan nan nan nan nan nan nan nan nan nan nan nan nan nan nan nan nan nan nan nan nan nan nan nan nan nan nan nan nan nan nan nan nan nan nan nan nan nan nan nan nan nan nan nan nan nan nan nan nan nan nan nan nan nan 282 282
nan nan nan nan nan nan nan nan nan nan nan nan nan nan nan nan nan nan nan nan nan nan nan nan nan nan nan nan nan nan nan nan nan nan nan nan nan nan nan nan nan nan nan nan nan nan nan nan nan nan nan nan nan nan nan nan nan nan nan nan nan nan nan
nan nan nan nan nan nan nan nan nan nan nan nan nan nan nan nan nan nan nan nan nan nan nan nan nan nan nan nan nan nan nan nan nan nan nan nan nan nan nan nan nan nan nan nan nan nan nan nan nan nan nan nan nan nan nan nan nan nan nan nan nan nan nan